Location: アルンシュタイン
(50.0000°N, 10.0000°E)
Time: 09:44:32
(UTC+01:00)

Envisat - Pass Details

Date: 29 September 2023
Orbit: 762 x 764 km, 98.3° (Epoch: 07 December)

Event Time Altitude Azimuth Distance (km) Brightness Sun altitude
Rises 03:56:24 0° 25° (NNE) 3,244 7.2 -30.8°
Reaches altitude 10° 03:59:15 10° 41° (NE) 2,312 6.4 -30.4°
Maximum altitude 04:03:07 22° 90° (E) 1,651 5.2 -29.9°
Enters shadow 04:06:48 11° 139° (SE) 2,251 5.4 -29.5°
